sat.trackr.live / text

‹ back to catalog

ONEWEB-0464

NORAD 51651 · 2022-012AF

PAYLOAD ACTIVE UNKNOWN

§ Identity

Operator
Country
UK
Launch date
2022-02-10
Launch site
FRGUI
Launch vehicle
Mass (kg)
RCS (m²)

Purposes: comms

External: N2YO · Heavens-Above · Gunter

§ Orbital elements

Epoch: 2026-09-20T00:32:17.466432Z

Period
109.89 min
Inclination
87.8894°
Eccentricity
0.0001939
Mean motion
13.10369277 rev/d
Perigee alt
1,220.3 km
Apogee alt
1,223.2 km
Semi-major
7,599.9 km
B*
1.1840e-4
RAAN
17.3989°
Arg perigee
94.7146°
Mean anomaly
265.4203°
Rev number
22,174

§ Raw data

ONEWEB-04641 51651U 22012AF  26263.02242438  .00000054  00000+0  11840-3 0  99942 51651  87.8894  17.3989 0001939  94.7146 265.4203 13.10369277221741

JSON: /api/v1/satellites/51651 · /tle

For live sub-satellite position, see the globe view (requires WebGL).

§ Visibility from observer

Set your observer location to see the next 7 days of passes ≥ 10°. The values pass through the URL so the page stays shareable.

No JS? Fill the form by hand. The geolocation button needs JavaScript.